Stündliche Wetter Graz

Heute, 26 Januar, Dienstag

Zeit Temperatur Niederschläge Wind Luftdruck Luftfeuchtigkeit
00:00 -3°C° 0 mm 1 m/S 717 mmHg 80%
01:00 -5°C° 0 mm 2 m/S 717 mmHg 80%
02:00 -5°C° 0 mm 2 m/S 717 mmHg 81%
03:00 -5°C° 0 mm 2 m/S 718 mmHg 82%
04:00 -5°C° 0 mm 2 m/S 718 mmHg 82%
05:00 -5°C° 0 mm 2 m/S 719 mmHg 82%
06:00 -5°C° 0 mm 2 m/S 719 mmHg 82%
07:00 -6°C° 0 mm 2 m/S 720 mmHg 83%
08:00 -2°C° 0 mm 1 m/S 720 mmHg 79%
09:00 -1°C° 0 mm 1 m/S 721 mmHg 75%
10:00 +1°C° 0 mm 1 m/S 721 mmHg 71%
11:00 +1°C° 0 mm 1 m/S 721 mmHg 67%
12:00 +2°C° 0 mm 1 m/S 721 mmHg 63%
13:00 +3°C° 0 mm 1 m/S 721 mmHg 58%
14:00 +3°C° 0 mm 1 m/S 721 mmHg 63%
15:00 +2°C° 0 mm 1 m/S 721 mmHg 68%
16:00 +1°C° 0 mm 1 m/S 721 mmHg 72%
17:00 0°C° 0 mm 1 m/S 721 mmHg 75%
18:00 -1°C° 0 mm 1 m/S 721 mmHg 77%
19:00 -2°C° 0 mm 1 m/S 721 mmHg 80%
20:00 -4°C° 0 mm 2 m/S 721 mmHg 80%
21:00 -5°C° 0 mm 2 m/S 722 mmHg 80%
22:00 -5°C° 0 mm 2 m/S 722 mmHg 80%
23:00 -5°C° 0 mm 2 m/S 722 mmHg 81%

Morgen, 27 Januar, Mittwoch

Zeit Temperatur Niederschläge Wind Luftdruck Luftfeuchtigkeit
00:00 -5°C° 0 mm 2 m/S 722 mmHg 81%
01:00 -5°C° 0 mm 2 m/S 723 mmHg 82%
02:00 -5°C° 0 mm 2 m/S 723 mmHg 82%
03:00 -5°C° 0 mm 2 m/S 723 mmHg 81%
04:00 -5°C° 0 mm 2 m/S 723 mmHg 81%
05:00 -5°C° 0 mm 2 m/S 723 mmHg 81%
06:00 -6°C° 0 mm 2 m/S 723 mmHg 81%
07:00 -6°C° 0 mm 2 m/S 723 mmHg 81%
08:00 -3°C° 0 mm 1 m/S 723 mmHg 78%
09:00 -2°C° 0 mm 1 m/S 723 mmHg 75%
10:00 0°C° 0 mm 1 m/S 723 mmHg 72%
11:00 +1°C° 0 mm 1 m/S 723 mmHg 69%
12:00 +2°C° 0 mm 1 m/S 723 mmHg 65%
13:00 +3°C° 0 mm 1 m/S 722 mmHg 62%
14:00 +2°C° 0 mm 1 m/S 722 mmHg 66%
15:00 +1°C° 0 mm 0 m/S 722 mmHg 69%
16:00 0°C° 0 mm 0 m/S 721 mmHg 73%
17:00 +1°C° 0 mm 1 m/S 721 mmHg 74%
18:00 0°C° 0 mm 1 m/S 722 mmHg 76%
19:00 0°C° 0 mm 1 m/S 722 mmHg 78%
20:00 -1°C° 0 mm 1 m/S 722 mmHg 78%
21:00 -1°C° 0 mm 1 m/S 722 mmHg 78%
22:00 -1°C° 0 mm 1 m/S 722 mmHg 78%
23:00 -1°C° 0 mm 1 m/S 722 mmHg 78%

übermorgen, 28 Januar, Donnerstag

Zeit Temperatur Niederschläge Wind Luftdruck Luftfeuchtigkeit
00:00 -2°C° 0 mm 1 m/S 721 mmHg 79%
01:00 -2°C° 0 mm 1 m/S 721 mmHg 80%
02:00 -2°C° 0 mm 1 m/S 721 mmHg 81%
03:00 -2°C° 0 mm 1 m/S 721 mmHg 82%
04:00 -2°C° 0 mm 1 m/S 721 mmHg 82%
05:00 -2°C° 0 mm 1 m/S 720 mmHg 82%
06:00 -2°C° 0 mm 1 m/S 720 mmHg 82%
07:00 -2°C° 0 mm 1 m/S 720 mmHg 82%
08:00 -1°C° 0 mm 1 m/S 720 mmHg 80%
09:00 0°C° 0 mm 1 m/S 720 mmHg 77%
10:00 +2°C° 0 mm 1 m/S 720 mmHg 75%
11:00 +3°C° 0 mm 1 m/S 719 mmHg 73%
12:00 +4°C° 0 mm 1 m/S 719 mmHg 71%
13:00 +5°C° 0 mm 1 m/S 719 mmHg 69%
14:00 +4°C° 0 mm 1 m/S 718 mmHg 73%
15:00 +4°C° 0 mm 1 m/S 717 mmHg 76%
16:00 +3°C° 0 mm 1 m/S 716 mmHg 79%
17:00 +3°C° 0 mm 1 m/S 715 mmHg 80%
18:00 +2°C° 0 mm 1 m/S 715 mmHg 82%
19:00 +1°C° 0 mm 1 m/S 715 mmHg 83%
20:00 -1°C° 0.2 mm 2 m/S 715 mmHg 85%
21:00 -1°C° 0.2 mm 2 m/S 714 mmHg 87%
22:00 -1°C° 0.2 mm 2 m/S 714 mmHg 89%
23:00 -1°C° 0.2 mm 2 m/S 714 mmHg 88%

29 Januar, Freitag

Zeit Temperatur Niederschläge Wind Luftdruck Luftfeuchtigkeit
00:00 -1°C° 0.2 mm 2 m/S 714 mmHg 88%
01:00 -1°C° 0.2 mm 2 m/S 713 mmHg 88%
02:00 -1°C° 0 mm 2 m/S 713 mmHg 87%
03:00 -1°C° 0 mm 2 m/S 713 mmHg 87%
04:00 -1°C° 0 mm 2 m/S 713 mmHg 87%
05:00 -1°C° 0 mm 2 m/S 713 mmHg 87%
06:00 -1°C° 0 mm 2 m/S 713 mmHg 87%
07:00 +2°C° 0 mm 1 m/S 713 mmHg 88%
08:00 +2°C° 0 mm 2 m/S 713 mmHg 86%
09:00 +3°C° 0 mm 2 m/S 713 mmHg 85%
10:00 +4°C° 0 mm 2 m/S 713 mmHg 84%
11:00 +5°C° 0.1 mm 2 m/S 713 mmHg 83%
12:00 +5°C° 0.1 mm 2 m/S 713 mmHg 81%
13:00 +5°C° 0.1 mm 3 m/S 713 mmHg 80%
14:00 +5°C° 0 mm 3 m/S 713 mmHg 82%
15:00 +5°C° 0 mm 2 m/S 713 mmHg 83%
16:00 +5°C° 0 mm 2 m/S 712 mmHg 85%
17:00 +4°C° 0 mm 2 m/S 713 mmHg 86%
18:00 +3°C° 0 mm 2 m/S 713 mmHg 87%
19:00 +2°C° 0 mm 2 m/S 714 mmHg 89%
20:00 +1°C° 0 mm 2 m/S 714 mmHg 88%
21:00 +2°C° 0 mm 1 m/S 714 mmHg 88%
22:00 +2°C° 0 mm 1 m/S 714 mmHg 88%
23:00 +2°C° 0 mm 1 m/S 714 mmHg 87%

30 Januar, Samstag

Zeit Temperatur Niederschläge Wind Luftdruck Luftfeuchtigkeit
00:00 +2°C° 0 mm 1 m/S 714 mmHg 87%
01:00 +2°C° 0 mm 1 m/S 713 mmHg 87%
02:00 +2°C° 0 mm 1 m/S 713 mmHg 87%
03:00 +2°C° 0 mm 1 m/S 713 mmHg 87%
04:00 +1°C° 0 mm 1 m/S 713 mmHg 87%
05:00 +1°C° 0 mm 1 m/S 713 mmHg 87%
06:00 +1°C° 0 mm 1 m/S 713 mmHg 86%
07:00 -1°C° 0 mm 2 m/S 713 mmHg 86%
08:00 +3°C° 0 mm 1 m/S 714 mmHg 83%
09:00 +4°C° 0 mm 1 m/S 714 mmHg 81%
10:00 +5°C° 0 mm 1 m/S 715 mmHg 79%
11:00 +6°C° 0 mm 1 m/S 715 mmHg 76%
12:00 +7°C° 0 mm 1 m/S 715 mmHg 74%
13:00 +8°C° 0 mm 1 m/S 715 mmHg 71%
14:00 +7°C° 0 mm 1 m/S 715 mmHg 77%
15:00 +5°C° 0 mm 1 m/S 715 mmHg 83%
16:00 +4°C° 0 mm 1 m/S 715 mmHg 89%
17:00 +3°C° 0 mm 1 m/S 715 mmHg 90%
18:00 +2°C° 0 mm 1 m/S 716 mmHg 91%
19:00 +1°C° 0 mm 1 m/S 717 mmHg 93%
20:00 +1°C° 0 mm 1 m/S 717 mmHg 92%
21:00 0°C° 0 mm 0 m/S 717 mmHg 92%
22:00 0°C° 0 mm 0 m/S 718 mmHg 92%
23:00 0°C° 0 mm 0 m/S 718 mmHg 92%

31 Januar, Sonntag

Zeit Temperatur Niederschläge Wind Luftdruck Luftfeuchtigkeit
00:00 -1°C° 0 mm 0 m/S 718 mmHg 92%
01:00 -1°C° 0 mm 0 m/S 718 mmHg 92%
02:00 -1°C° 0 mm 0 m/S 718 mmHg 92%
03:00 -1°C° 0 mm 0 m/S 718 mmHg 92%
04:00 -1°C° 0 mm 0 m/S 718 mmHg 93%
05:00 -1°C° 0 mm 0 m/S 718 mmHg 93%
06:00 -1°C° 0 mm 0 m/S 718 mmHg 93%
07:00 -1°C° 0 mm 0 m/S 719 mmHg 94%
08:00 0°C° 0 mm 0 m/S 719 mmHg 92%
09:00 0°C° 0 mm 0 m/S 719 mmHg 91%
10:00 +1°C° 0 mm 0 m/S 719 mmHg 89%
11:00 +2°C° 0 mm 1 m/S 718 mmHg 88%
12:00 +3°C° 0 mm 1 m/S 717 mmHg 88%
13:00 +3°C° 0 mm 1 m/S 717 mmHg 87%
14:00 +3°C° 0 mm 1 m/S 716 mmHg 89%
15:00 +3°C° 0 mm 1 m/S 716 mmHg 90%
16:00 +2°C° 0 mm 1 m/S 715 mmHg 92%
17:00 +2°C° 0 mm 1 m/S 714 mmHg 93%
18:00 +2°C° 0 mm 1 m/S 714 mmHg 95%
19:00 0°C° 0 mm 0 m/S 714 mmHg 96%
20:00 0°C° 0 mm 0 m/S 713 mmHg 96%
21:00 0°C° 0 mm 0 m/S 713 mmHg 96%
22:00 0°C° 0 mm 0 m/S 713 mmHg 96%
23:00 +1°C° 0 mm 1 m/S 712 mmHg 95%
Mehr zeigen

Wir brauchen deine Erlaubnis

Meteoprog und unser Service Anbieter werden persönliche Daten aufbewahren, so wie Cookies, Geräte Bezeichnung oder ähnliche Technologien von deinem Gerät und Prozess, so wie Persönliche Daten Inhalte und Werbungen, genauso wie social Media und den Verkehr zu analysieren.

  • Aufbewahrung und/oder Zugang zu deiner Geräte Informationen.

    Cookies, Geräte Bezeichnung oder andere Informationen, können aufbewahrt oder Zugang zu deinem Gerät erhalten, für den Grund, der oben angegeben wird.

  • Personalisierte Werbung und Inhalte, Messungen, Einblick in das Publikum und Produkt Entwicklung.

    Werbungen und Inhalte können personalisiert werden, basierend auf ein Profil. Mehr Daten können besser personalisierte Werbungen und Inhalte hinzufügen. Werbung und Inhalte können gezeigt und gemessen werden. Einblicke über das Publikum, welche die Werbung gesehen haben und den Inhalt, können abgeleitet werden. So wie Daten können genutzt werden, um es zu verbessern oder die Benutzer Erfahrung zu verbessern das System und die Software.

Wenn du “Ich stimme zu” klickst, erlaubst du uns, die Cookies zu benutzen die Geräte Bezeichnung, den Web oder ähnliche Technologien zu benutzen. Deine Settings, können in deinem Gerät bei deinem Browser geändert werden.

Für den bestimmten Zweck, berechtigten Interessen beruhen darauf, mehr als auf den Inhalt. Du kannst mehr darüber in unseren Privaten und Cookie Politik lesen.